Simultaneous Nadir Overpasses (SNOs) Predictions

Prediction of SNOs between GOES-15 and TERRA Satellite Orbit:

Table of predicted SNOs for the next 14.0 days since TLE Epoch: 4/9/2022
Index Date Time (GOES-15) GOES-15 Lat,Lon TERRA Lat,Lon Distance(km) Time Diff (sec)
1 04/10/2022 06:38:39 0.10,-128.39 1.00,-124.21 475.27 80
2 04/10/2022 18:57:14 -0.11,-128.42 0.11,-129.37 108.40 80
3 04/12/2022 18:47:41 -0.11,-128.41 -0.51,-126.42 225.82 80
4 04/13/2022 07:06:25 0.12,-128.38 -0.58,-131.62 368.75 80
5 04/15/2022 06:54:12 0.12,-128.36 0.05,-128.67 34.82 80
6 04/17/2022 06:44:39 0.12,-128.34 0.69,-125.72 298.59 80
7 04/17/2022 19:03:14 -0.12,-128.37 0.40,-130.88 285.65 80
8 04/19/2022 18:53:40 -0.13,-128.34 -0.19,-127.93 46.68 80
9 04/21/2022 18:41:27 -0.13,-128.30 -0.86,-124.98 378.01 80
10 04/22/2022 07:00:09 0.14,-128.26 -0.28,-130.17 217.05 80
